Philip, SD

9:04 AM MDT on October 19, 2017 (GMT -0600)
Philip

Weather History for KPHP - November, 2013

Change the Weather History Date:

Monday, November 25, 2013

  Actual Average Record
Temperature  
Mean Temperature 35 °F 29 °F  
Max Temperature 45 °F 42 °F 76 °F (1960)
Min Temperature 24 °F 17 °F 0 °F (1993)
Degree Days  
Heating Degree Days 30 36  
Month to date heating degree days 755 744  
Since 1 July heating degree days 1338 1447  
Cooling Degree Days 0 0  
Month to date cooling degree days 0 0  
Year to date cooling degree days 945 818  
Moisture  
Dew Point 19 °F    
Average Humidity 59    
Maximum Humidity 81    
Minimum Humidity 37    
Precipitation  
Precipitation 0.00 in 0.01 in 0.71 in (1984)
Month to date precipitation 0.41 0.55  
Year to date precipitation 15.27 16.85  
Sea Level Pressure  
Sea Level Pressure 30.25 in    
Wind  
Wind Speed 11 mph (NW)    
Max Wind Speed 23 mph    
Max Gust Speed 29 mph    
Visibility 10 miles    
Events      
T = Trace of Precipitation, MM = Missing Value Source: NWS Daily Summary

Daily Weather History Graph

Daily Weather History Graph

Search for Another Location

Airport or City:

Trip Planner

Search our weather history database for the weather conditions in past years. The results will help you decide how hot, cold, wet, or windy it might be!

Date:

Astronomy

Nov. 25, 2013 Rise Set
Actual Time 6:54 AM MST 4:12 PM MST
Civil Twilight 6:22 AM MST 4:44 PM MST
Nautical Twilight 5:46 AM MST 5:19 PM MST
Astronomical Twilight 5:12 AM MST 5:54 PM MST
Moon 11:47 PM MST (11/25) 12:04 PM MST (11/25)
Length of Visible Light 10h 21m
Length of Day
9h 17m
Waning Gibbous, 50% of the Moon is Illuminated
Nov 25
Waning Gibbous
Nov 25
Last Quarter
Dec 2
New
Dec 9
First Quarter
Dec 17
Full

Hourly Weather History & Observations

Time (MST) Temp. Windchill Dew Point Humidity Pressure Visibility Wind Dir Wind Speed Gust Speed Precip Events Conditions
12:55 AM 36.0 °F 30.3 °F 23.0 °F 59% 30.07 in 10.0 mi WNW 6.9 mph - N/A   Overcast
1:55 AM 33.1 °F 26.1 °F 21.9 °F 64% 30.10 in 10.0 mi WNW 8.1 mph - N/A   Partly Cloudy
2:55 AM 27.0 °F 20.5 °F 19.9 °F 75% 30.12 in 10.0 mi WNW 5.8 mph - N/A   Clear
3:55 AM 27.0 °F - 19.9 °F 75% 30.15 in 10.0 mi Calm Calm - N/A   Clear
4:55 AM 26.1 °F 18.4 °F 19.9 °F 78% 30.17 in 10.0 mi WNW 6.9 mph - N/A   Clear
5:55 AM 26.1 °F 17.6 °F 19.9 °F 78% 30.20 in 10.0 mi WNW 8.1 mph - N/A   Clear
6:55 AM 27.0 °F 20.5 °F 21.0 °F 78% 30.23 in 10.0 mi NW 5.8 mph - N/A   Clear
7:55 AM 33.1 °F 23.4 °F 21.9 °F 64% 30.25 in 10.0 mi NNW 13.8 mph - N/A   Clear
8:55 AM 35.1 °F 25.5 °F 23.0 °F 61% 30.27 in 10.0 mi NW 15.0 mph 23.0 mph N/A   Clear
9:55 AM 39.0 °F 31.0 °F 21.9 °F 50% 30.27 in 10.0 mi NW 13.8 mph - N/A   Clear
10:55 AM 39.0 °F 30.6 °F 21.0 °F 49% 30.27 in 10.0 mi NW 15.0 mph - N/A   Clear
11:55 AM 41.0 °F 33.1 °F 19.9 °F 43% 30.26 in 10.0 mi NW 15.0 mph - N/A   Clear
12:55 PM 43.0 °F 35.4 °F 21.0 °F 42% 30.24 in 10.0 mi WNW 16.1 mph - N/A   Clear
1:55 PM 45.0 °F 37.4 °F 19.9 °F 37% 30.25 in 10.0 mi NW 18.4 mph 26.5 mph N/A   Clear
2:55 PM 39.9 °F 33.4 °F 19.0 °F 43% 30.27 in 10.0 mi WNW 10.4 mph - N/A   Clear
3:55 PM 36.0 °F 27.5 °F 18.0 °F 48% 30.27 in 10.0 mi WNW 12.7 mph - N/A   Clear
4:55 PM 30.0 °F 22.4 °F 17.1 °F 59% 30.30 in 10.0 mi WNW 8.1 mph - N/A   Clear
5:55 PM 28.9 °F 20.4 °F 17.1 °F 61% 30.30 in 10.0 mi WNW 9.2 mph - N/A   Clear
6:55 PM 25.0 °F 14.2 °F 16.0 °F 69% 30.32 in 10.0 mi West 11.5 mph - N/A   Clear
7:55 PM 27.0 °F 18.7 °F 17.1 °F 66% 30.32 in 10.0 mi WNW 8.1 mph - N/A   Clear
8:55 PM 30.9 °F 22.8 °F 17.1 °F 57% 30.32 in 10.0 mi NW 9.2 mph - N/A   Clear
9:55 PM 32.0 °F 22.5 °F 15.1 °F 50% 30.32 in 10.0 mi NNW 12.7 mph - N/A   Clear
10:55 PM 30.9 °F 23.5 °F 16.0 °F 54% 30.34 in 10.0 mi NNW 8.1 mph - N/A   Overcast
11:55 PM 30.0 °F 18.7 °F 18.0 °F 61% 30.35 in 10.0 mi NNW 16.1 mph 20.7 mph N/A   Overcast